Content
SEND FEEDBACK

Daily
Averages
Monthly
Summary
United States of America

NEW YORK, NEW YORK


Home > North America > United States > New York
Elevation: 39 meters     Latitude: 40 47N     Longitude: 073 58W

WEATHER
 
SELECT A DAY
Number of Records: 153,021;   Date Range: 11/1/95 - 12/20/14
 
SHARE

PRINT THIS DATA

[ ← Previous Day ]
WEATHER ALMANAC - 5 FEBRUARY, 2013
[ Next Day → ]
[ °F ]   °C
Weather ElementAverageHighLow
Temperature-1.3 °C0 °C (10:51 pm)-2.2 °C (4:25 am)
Dewpoint-4.2 °C-2.2 °C (10:51 pm)-6.7 °C (1:51 am)
Humidity80.6 %89 % (11:51 pm)69 % (1:51 am)
Barometer1013.5 hPa1015.2 hPa (10:51 am)1012.5 hPa (5:51 pm)
Wind Speed7.4 km/h14.8 km/h (11:51 am)
Weather ElementAverage
Visibility7.7 km
Wind DirectionENE (61.7 °)

Weather ElementTotal
Precipitation1.02 mm
Heating Degree Days19.4 (Base 18.3)
Averaged from 30 records on 5 February, 2013
WEATHER CONDITIONS BREAKOUT
WIND DIRECTION BREAKOUT
WEATHER BY HOUR - 5 FEBRUARY, 2013
[ °F ]   °C
Local TimeTemperatureDewpointHumidityBarometerVisibilityWind DirectionWind SpeedGust SpeedPrecipitationEventsConditions
1:51 AM-1.7 °C-6.7 °C69 %1013.9 hPa12.9 kmWSW (240°)5.6 km/hOvercast
2:46 AM-2 °C-6 °C74 %1014.2 hPa9.7 kmVariable7.4 km/hHaze
2:51 AM-1.7 °C-5.6 °C75 %1013.5 hPa8 kmWest (280°)7.4 km/h0 mmSnowLight Snow
3:51 AM-1.7 °C-5 °C78 %1013.5 hPa4.8 kmCalm0 mmSnowLight Snow
3:59 AM-1.7 °C-5 °C78 %1013.9 hPa4 kmCalm0 mmSnowLight Snow
4:10 AM-1.7 °C-4.4 °C82 %1013.5 hPa4.8 kmCalm0 mmSnowLight Snow
4:25 AM-2.2 °C-4.4 °C85 %1013.5 hPa4.8 kmNorth (10°)5.6 km/h0.25 mmSnowLight Snow
4:51 AM-1.7 °C-4.4 °C82 %1012.9 hPa6.4 kmCalm0.25 mmSnowLight Snow
5:51 AM-1.7 °C-4.4 °C82 %1013.5 hPa6.4 kmNorth (350°)7.4 km/h0 mmSnowLight Snow
6:51 AM-2.2 °C-5 °C81 %1013.9 hPa8 kmNNE (20°)7.4 km/h0 mmHaze
7:51 AM-2.2 °C-5 °C81 %1014.2 hPa6.4 kmNNE (30°)5.6 km/h0 mmHaze
8:51 AM-1.7 °C-5 °C78 %1014.6 hPa8 kmVariable9.3 km/hHaze
9:51 AM-1.7 °C-5 °C78 %1014.6 hPa8 kmNE (50°)9.3 km/hHaze
10:51 AM-1.1 °C-4.4 °C79 %1015.2 hPa6.4 kmNE (40°)7.4 km/hHaze
11:51 AM-1.1 °C-5 °C75 %1014.2 hPa9.7 kmENE (60°)14.8 km/hHaze
12:51 PM-1.1 °C-4.4 °C79 %1014.2 hPa9.7 kmENE (60°)13 km/hHaze
1:51 PM-1.1 °C-4.4 °C79 %1013.2 hPa6.4 kmNE (50°)14.8 km/hHaze
2:51 PM-1.1 °C-4.4 °C79 %1012.9 hPa9.7 kmEast (80°)11.1 km/hHaze
3:51 PM-1.1 °C-4.4 °C79 %1013.2 hPa8 kmENE (70°)13 km/hHaze
4:51 PM-1.1 °C-4.4 °C79 %1012.9 hPa11.3 kmENE (60°)9.3 km/hOvercast
5:51 PM-1.1 °C-3.9 °C82 %1012.5 hPa12.9 kmVariable9.3 km/hOvercast
6:51 PM-1.1 °C-3.3 °C85 %1012.9 hPa8 kmNE (50°)9.3 km/hOvercast
7:51 PM-0.6 °C-3.3 °C82 %1012.9 hPa6.4 kmENE (70°)7.4 km/hHaze
8:18 PM-0.6 °C-3.3 °C82 %1013.5 hPa3.2 kmENE (70°)11.1 km/h0 mmSnowLight Snow
8:41 PM-0.6 °C-2.8 °C85 %1013.2 hPa6.4 kmENE (70°)7.4 km/h0.25 mmOvercast
8:51 PM-0.6 °C-2.8 °C85 %1012.9 hPa6.4 kmENE (60°)7.4 km/h0.25 mmOvercast
9:47 PM-1 °C-3 °C86 %1013.5 hPa9.7 kmENE (70°)7.4 km/hOvercast
9:51 PM-0.6 °C-2.8 °C85 %1013.2 hPa9.7 kmVariable5.6 km/hOvercast
10:51 PM0 °C-2.2 °C85 %1013.2 hPa8 kmENE (60°)7.4 km/hOvercast
11:51 PM-0.6 °C-2.2 °C89 %1013.2 hPa6.4 kmCalmOvercast
Hourly data recorded from KNYC, located 0 kilometers away from New York, New York







STORIES FROM OUR PARTNERS